Location: Goettingen
(51.5300°N, 9.9433°E)
Time: 11:38:35
(UTC+02:00)

ISS - Pass Details

Date: 21 May 2019
Orbit: 407 x 410 km, 51.6° (Epoch: 21 May)

Event Time Altitude Azimuth Distance (km) Brightness Sun altitude
Rises 23:31:31 0° 262° (W) 2,332 0.3 -14.6°
Reaches altitude 10° 23:33:36 10° 262° (W) 1,472 -0.8 -14.7°
Maximum altitude 23:36:55 89° 159° (SSE) 414 -3.9 -14.9°
Drops below altitude 10° 23:40:14 10° 84° (E) 1,475 -1.2 -15.1°
Enters shadow 23:41:33 - 84° (E) 2,023 -0.5 -15.2°
